EHI
0 0 0 0 0 0 0 0 0 0 0 0 0 0 0 0 0 0 0 0 0 0 0 0 0 0 0 0 0 0 0 0 0 0 0 0 0 0 0 0 0 0 0
0 0 0 0 0 0 0 0 0 0 0 0 0 0 0 0 0 0 0 0 0 0 0 0 0 0 0 0 0 0 0 0 0 0 0 0 0 0 0 0 0 0 0
0 0 0 0 0 0 0 0 0 0 0 0 0 0 0 0 0 0 0 0 0 0 0 0 0 0 0 0 0 0 0 0 0 0 0 0 0 0 0 0 0 0 0
1 1 1 1 0 0 0 0 0 0 0 0 0 0 0 0 0 0 0 0 0 0 0 0 0 0 0 0 0 0 0 0 0 0 0 0 0 0 0 0 0 0 0
2 2 2 2 1 0 0 0 0 0 0 0 0 0 0 0 0 0 0 0 0 0 0 0 0 0 0 0 0 0 0 0 0 0 0 0 0 0 0 0 0 0 0
3 3 3 2 1 0 0 0 0 0 0 0 0 0 0 0 0 0 0 0 0 0 0 0 0 0 1 2 1 1 0 0 0 0 0 0 0 0 0 0 0 0 0
3 3 3 3 1 0 0 0 0 0 0 0 0 0 0 0 0 0 0 0 0 0 0 0 0 0 1 3 3 2 2 1 0 0 0 0 0 0 0 0 0 0 0
3 3 3 3 2 1 0 0 0 0 0 0 0 0 0 0 0 0 0 0 0 0 0 0 0 0 0 1 2 3 4 3 1 0 0 0 0 0 0 0 0 0 0
3 3 3 3 2 1 0 0 0 0 0 0 0 0 0 0 0 0 0 0 0 0 0 0 0 0 0 0 0 2 5 6 5 3 2 1 0 0 0 0 0 0 0
3 3 4 3 1 0 0 0 0 0 0 0 0 0 0 0 0 0 0 0 0 0 0 0 0 0 0 0 0 1 3 6 7 8 7 4 2 0 0 0 0 0 0
2 3 4 3 1 0 0 0 0 0 0 0 0 0 0 0 0 0 0 0 0 0 0 0 0 0 0 0 0 0 1 2 5 8 9 7 4 1 0 0 0 0 0
3 4 4 2 0 0 0 0 0 0 0 0 0 0 0 0 0 0 0 0 0 0 0 0 0 0 0 0 0 0 0 0 1 3 5 5 4 2 1 1 0 0 0
5 5 4 2 0 0 0 0 0 0 0 0 0 0 0 0 0 0 0 0 0 0 0 0 0 0 0 0 0 0 0 0 0 0 1 2 2 2 2 1 0 0 0
3 4 3 1 0 0 0 0 0 0 0 0 0 0 0 0 0 0 0 0 0 0 0 0 0 0 0 0 0 0 0 0 0 0 0 0 1 1 1 1 0 0 0
1 1 1 0 0 0 0 0 0 0 0 0 0 0 0 0 0 0 0 0 0 0 0 0 0 0 0 0 0 0 0 0 0 0 0 0 0 0 0 0 0 0 0
0 0 0 0 0 0 1 1 0 0 0 0 0 0 0 0 0 0 0 0 0 0 0 0 0 0 0 0 0 0 0 0 0 0 0 0 0 0 0 0 0 0 0
0 0 0 0 0 1 2 2 1 0 0 0 0 0 0 0 0 0 0 0 0 0 0 0 0 0 0 0 0 0 0 0 0 0 0 0 0 0 0 0 0 0 0
0 0 0 0 0 1 3 3 1 0 0 0 0 0 0 0 0 0 0 0 0 0 0 0 0 0 0 0 0 0 0 0 0 0 0 0 0 0 0 0 0 0 0
1 1 1 1 1 3 3 3 2 1 0 0 0 0 0 0 0 0 0 0 0 0 0 0 0 0 0 0 0 0 0 0 0 0 0 0 0 0 0 0 0 0 0
2 2 2 2 2 3 3 3 2 1 0 0 0 0 0 0 0 0 0 0 0 0 0 0 0 0 0 0 0 0 0 0 0 0 0 0 0 0 0 0 0 0 0
4 3 3 2 1 1 1 2 1 0 0 0 0 0 0 0 0 0 0 0 0 0 0 0 0 0 0 0 0 0 0 0 0 0 0 0 0 0 0 0 0 0 0
5 4 3 2 1 1 0 0 0 0 0 0 0 1 0 0 0 0 0 0 0 0 0 0 0 0 0 0 0 0 0 0 0 0 0 0 0 0 0 0 0 0 0
6 5 5 5 4 2 1 0 0 0 0 0 0 0 0 0 0 0 0 0 0 0 0 0 0 0 0 0 0 0 0 0 0 0 0 0 0 0 0 0 0 0 0
7 7 8 9 7 4 1 0 0 0 0 0 0 0 0 0 0 0 0 0 0 0 0 0 0 0 0 0 0 0 0 0 0 0 0 0 0 0 0 0 0 0 0
8 9 10 10 8 5 2 0 0 0 0 0 0 0 0 0 0 0 0 0 0 0 0 0 0 0 0 0 0 0 0 0 0 0 0 0 0 0 0 0 0 0 0
8 9 11 10 8 5 2 1 0 0 0 0 0 0 0 0 0 0 0 0 0 0 0 0 0 0 0 0 0 0 0 0 0 0 0 0 0 0 0 0 0 0 0
Wind_Speed
5 4 3 3 3 2 2 2 2 2 2 3 4 6 6 6 5 4 4 12 12 11 12 12 11 11 10 10 9 9 9 9 8 8 8 8 8 8 8 7 7 7 6
5 4 4 3 3 3 3 3 3 2 2 2 4 6 6 6 5 5 3 6 11 10 11 11 11 11 11 10 10 9 9 9 9 8 8 7 7 7 8 7 7 7 6
6 5 4 4 3 3 3 2 2 2 2 2 3 5 5 5 5 5 5 3 4 9 10 11 11 11 11 11 10 10 9 9 9 9 8 8 7 7 7 7 7 7 7
7 5 4 4 3 3 3 3 2 2 2 2 2 3 3 4 5 5 4 4 3 4 7 10 10 10 11 11 11 10 10 9 9 9 9 9 8 8 8 8 8 7 7
6 5 4 3 4 3 3 3 2 2 2 2 2 2 2 3 4 6 5 5 5 4 3 7 10 10 11 11 11 11 11 11 10 10 10 10 10 9 8 8 8 8 8
6 5 4 4 4 3 2 2 3 2 2 2 2 1 1 2 3 4 5 5 5 6 5 5 4 6 10 10 10 10 11 11 11 11 11 10 10 10 9 9 9 9 9
6 5 4 4 4 4 4 4 3 3 1 2 2 1 2 1 2 3 3 4 5 6 5 5 4 3 4 8 9 9 10 11 11 11 11 11 10 10 10 10 9 10 10
6 6 5 5 5 4 4 4 3 2 1 2 3 2 1 2 2 2 2 4 5 4 5 7 5 5 4 3 6 10 10 10 10 10 10 10 10 9 10 10 10 10 10
6 5 6 5 5 5 4 4 4 4 2 1 2 4 3 3 2 2 2 3 4 4 4 5 6 6 6 4 4 8 11 10 10 10 9 8 8 8 8 9 9 9 9
7 6 6 6 5 4 5 4 4 3 4 2 1 1 2 4 3 1 2 2 3 4 5 5 6 6 6 5 6 9 11 11 11 11 10 9 8 8 9 9 10 10 10
7 7 7 6 6 5 5 5 4 4 3 3 3 1 1 1 2 3 2 2 2 3 4 5 4 4 6 6 5 9 12 12 11 11 10 10 10 10 10 10 11 11 11
5 7 7 6 6 5 5 5 5 5 4 4 3 2 2 2 2 3 3 3 3 3 3 4 4 5 5 5 9 12 13 13 12 12 11 11 11 11 11 11 11 11 11
5 7 7 6 6 6 5 5 5 5 5 4 4 3 3 2 2 3 3 2 2 2 2 2 4 4 5 5 6 12 12 13 13 13 12 12 11 11 11 11 11 11 11
6 7 7 7 7 7 7 5 4 4 4 4 5 4 3 2 2 3 3 3 1 2 2 3 2 4 4 4 7 11 7 12 13 13 13 12 12 12 11 11 11 11 11
6 7 7 7 7 7 7 6 4 5 4 4 4 4 3 2 2 2 2 3 4 2 3 4 3 3 3 4 6 6 5 10 13 12 12 12 12 12 12 12 12 12 11
6 7 7 7 7 7 7 6 5 4 5 4 3 4 3 2 2 2 2 2 3 4 4 3 3 3 3 4 6 5 6 9 12 12 13 13 13 13 13 13 13 13 12
6 7 7 8 7 7 7 6 5 5 5 4 3 4 4 3 2 2 2 2 2 3 3 4 3 2 2 2 2 3 4 5 5 11 13 13 13 13 13 13 13 13 13
6 6 6 7 7 7 7 7 7 6 5 5 4 4 4 3 3 2 2 2 2 3 3 3 3 2 3 3 2 3 4 4 4 8 11 12 13 13 13 13 13 13 13
5 5 6 7 6 6 6 6 6 6 5 5 5 4 4 3 3 2 2 2 2 2 2 3 3 2 2 1 1 2 3 2 4 5 8 9 10 11 12 12 13 13 14
6 5 5 5 5 5 5 5 5 5 4 4 3 4 4 4 5 4 3 3 2 2 2 2 2 2 2 1 1 2 2 2 3 3 4 4 6 8 10 11 12 13 13
5 5 5 4 4 4 4 5 5 5 4 4 3 3 4 5 6 5 4 4 3 2 2 2 2 1 2 1 2 2 3 3 3 2 2 3 3 3 5 8 11 12 13
4 4 4 4 4 3 4 6 6 4 4 4 4 3 4 4 5 6 6 6 6 5 4 3 2 3 3 3 2 2 2 1 3 2 1 4 2 4 4 4 8 10 11
5 4 4 4 3 3 4 5 6 4 3 4 4 4 3 3 4 3 4 5 5 6 6 5 4 4 4 4 3 2 3 3 4 3 1 4 3 4 5 5 9 10 10
4 4 3 3 3 2 3 4 5 4 3 3 3 3 3 3 2 2 2 2 3 4 5 4 4 5 4 3 4 4 4 3 4 3 3 4 4 4 5 4 8 9 8
4 4 3 4 3 1 1 2 4 2 2 1 1 1 2 2 2 2 2 2 3 3 3 4 5 5 5 4 3 1 1 1 3 4 2 3 3 3 4 4 6 8 8
4 4 4 3 3 2 2 2 4 2 1 1 0 0 1 1 1 1 2 2 3 3 2 2 2 4 3 4 4 4 3 2 2 4 3 2 3 2 4 3 3 4 5
Wind_Direction
167 169 174 180 188 185 185 194 202 188 171 160 161 155 154 155 159 162 171 177 175 174 173 173 174 174 174 174 173 173 173 172 170 170 172 171 171 170 168 166 165 163 163
165 168 175 181 191 189 186 184 181 173 155 151 150 154 156 159 165 163 168 180 181 181 183 183 184 183 184 185 186 186 186 186 183 183 184 184 182 181 183 182 179 178 178
168 169 170 180 188 178 167 155 151 132 131 124 135 151 157 165 167 170 171 177 185 191 190 190 190 191 193 194 196 198 198 197 194 194 195 194 194 196 197 197 196 195 194
164 162 164 173 170 152 145 145 135 119 116 122 139 161 159 166 171 174 174 179 182 192 199 198 197 198 200 202 204 205 206 205 204 205 205 205 205 206 207 210 208 207 206
161 157 161 163 155 145 150 157 130 134 137 145 165 171 171 173 173 179 184 186 188 192 194 206 205 205 208 210 212 212 211 211 211 212 214 214 213 212 213 217 218 216 216
160 155 157 158 149 143 147 138 129 123 137 156 170 151 191 193 182 188 190 187 193 197 197 202 201 212 214 216 218 218 216 215 215 216 217 217 219 218 219 222 224 225 225
161 158 160 156 152 157 163 153 135 129 129 128 93 42 349 297 214 207 197 184 197 200 193 198 195 199 214 220 223 224 222 219 218 217 218 219 221 219 220 224 228 230 231
169 170 162 164 159 153 153 154 138 132 153 143 129 109 27 339 307 229 204 197 201 195 197 202 197 201 208 206 220 221 223 223 222 220 220 221 222 223 224 228 230 232 233
177 172 168 164 163 160 166 171 157 152 162 180 151 148 154 211 272 303 235 212 196 194 205 202 202 205 206 205 211 220 220 220 220 221 220 218 220 222 226 230 233 235 235
179 176 172 167 165 164 168 179 169 159 151 169 200 196 174 162 157 260 307 263 214 205 205 208 205 205 203 201 209 211 214 215 217 220 220 218 218 221 227 233 238 239 239
185 184 177 172 170 169 176 175 162 164 161 164 173 175 155 123 137 151 232 279 281 237 212 208 204 205 203 204 209 215 213 214 216 219 222 222 222 224 228 234 240 241 242
188 188 179 176 175 173 178 182 178 173 173 168 168 167 163 164 183 167 193 228 244 258 231 215 210 208 206 205 215 215 213 214 216 220 223 224 226 228 231 236 241 243 245
192 195 186 179 178 179 179 178 179 180 178 177 181 185 182 185 173 165 167 202 235 269 269 239 222 209 210 203 216 213 213 215 217 220 223 226 229 232 235 238 240 243 246
197 190 186 182 183 180 183 178 180 188 181 185 190 182 180 195 181 173 169 163 186 290 290 266 256 220 217 204 215 209 215 215 219 222 225 228 230 233 235 237 239 241 244
195 190 186 182 185 183 180 173 181 189 182 191 193 188 190 200 190 187 174 168 163 197 255 262 262 243 219 211 214 204 211 219 219 223 227 231 234 236 237 238 239 240 242
191 183 183 181 184 182 180 176 179 184 182 195 193 188 200 203 195 188 182 178 168 171 220 248 243 251 226 220 210 202 213 221 224 226 229 234 237 239 240 241 241 242 243
182 182 183 181 184 185 180 179 184 181 186 199 202 198 216 208 193 197 180 175 177 164 201 257 252 253 215 226 216 219 223 222 230 231 233 237 240 242 243 244 245 245 247
183 185 181 181 186 186 181 182 186 186 186 194 204 203 220 212 204 203 187 192 191 184 182 228 253 246 234 231 224 233 238 231 230 237 236 240 243 245 245 246 247 249 250
179 182 180 182 186 182 181 186 184 184 193 198 198 198 210 201 212 208 200 203 211 201 182 194 235 243 252 242 220 256 259 264 255 251 242 243 247 250 251 251 252 251 252
169 172 176 177 175 170 176 185 180 179 188 195 198 198 199 198 206 206 207 209 204 202 196 195 226 243 248 256 173 235 275 270 272 274 266 255 252 254 258 259 258 256 256
165 160 160 163 163 168 186 187 183 183 183 191 200 205 212 215 216 208 204 200 193 194 197 201 225 237 245 235 225 223 240 269 277 254 267 274 271 269 267 264 261 260 258
147 141 150 154 158 177 181 183 183 182 183 193 207 215 226 228 230 224 221 202 190 192 199 199 217 229 244 234 231 224 226 256 280 267 233 273 254 263 264 256 262 263 260
142 142 151 148 154 171 178 185 184 179 187 201 210 214 228 232 223 228 233 227 218 213 197 188 206 225 231 224 214 234 230 229 239 247 211 269 263 262 264 269 270 266 267
143 151 154 155 148 172 190 193 186 177 187 205 204 201 207 234 229 214 223 233 239 234 220 210 215 229 231 224 210 219 230 247 266 261 205 248 260 258 270 267 265 265 271
136 141 136 138 139 140 158 176 170 164 175 203 209 201 195 218 247 209 200 236 261 271 254 241 244 248 249 248 224 200 247 252 279 277 222 222 261 274 272 265 265 266 272
122 118 108 103 104 77 50 119 155 143 155 193 163 120 177 203 265 213 201 225 257 271 294 304 281 278 271 271 246 213 214 227 252 272 259 219 252 271 288 274 269 272 274